• In Denmark
  • List of Countries
  • For 7 days
  • Water Temperature
  • Satellite Maps
  • Weather Map
  • Weather Widgets
  • user-avatar
    Login

    Hourly Weather Hadera

    Today, 18 October, Thursday

    Time Temperature Precipitation Wind Pressure Humidity
    00:00 +21°C° 0.4 mm 1 mps 717 mmHg 82%
    01:00 +20°C° 0.4 mm 2 mps 717 mmHg 82%
    02:00 +21°C° 0 mm 2 mps 717 mmHg 79%
    03:00 +20°C° 0.1 mm 2 mps 717 mmHg 78%
    04:00 +20°C° 0.1 mm 2 mps 717 mmHg 78%
    05:00 +20°C° 0.1 mm 2 mps 717 mmHg 77%
    06:00 +21°C° 0 mm 2 mps 717 mmHg 72%
    07:00 +23°C° 0 mm 2 mps 717 mmHg 68%
    08:00 +24°C° 0 mm 2 mps 717 mmHg 63%
    09:00 +25°C° 0.2 mm 2 mps 717 mmHg 60%
    10:00 +25°C° 0.2 mm 2 mps 717 mmHg 57%
    11:00 +26°C° 0.2 mm 2 mps 717 mmHg 54%
    12:00 +26°C° 0.2 mm 3 mps 717 mmHg 54%
    13:00 +26°C° 0.2 mm 3 mps 717 mmHg 54%
    14:00 +27°C° 0.2 mm 3 mps 717 mmHg 53%
    15:00 +26°C° 0.2 mm 3 mps 717 mmHg 56%
    16:00 +25°C° 0.2 mm 3 mps 716 mmHg 59%
    17:00 +25°C° 0.2 mm 3 mps 716 mmHg 61%
    18:00 +24°C° 0 mm 3 mps 716 mmHg 65%
    19:00 +24°C° 0 mm 3 mps 716 mmHg 68%
    20:00 +22°C° 0 mm 3 mps 717 mmHg 71%
    21:00 +22°C° 0 mm 3 mps 717 mmHg 72%
    22:00 +21°C° 0 mm 3 mps 717 mmHg 73%
    23:00 +21°C° 0 mm 2 mps 717 mmHg 74%

    Tomorrow, 19 October, Friday

    Time Temperature Precipitation Wind Pressure Humidity
    00:00 +21°C° 0 mm 2 mps 717 mmHg 74%
    01:00 +21°C° 0 mm 2 mps 716 mmHg 74%
    02:00 +20°C° 0 mm 2 mps 716 mmHg 74%
    03:00 +20°C° 0 mm 2 mps 716 mmHg 74%
    04:00 +20°C° 0 mm 2 mps 716 mmHg 74%
    05:00 +21°C° 0 mm 1 mps 716 mmHg 73%
    06:00 +22°C° 0 mm 1 mps 717 mmHg 68%
    07:00 +23°C° 0 mm 1 mps 717 mmHg 62%
    08:00 +24°C° 0 mm 1 mps 717 mmHg 56%
    09:00 +25°C° 0 mm 1 mps 717 mmHg 53%
    10:00 +26°C° 0 mm 1 mps 717 mmHg 49%
    11:00 +27°C° 0 mm 1 mps 718 mmHg 46%
    12:00 +27°C° 0 mm 1 mps 717 mmHg 46%
    13:00 +27°C° 0 mm 2 mps 717 mmHg 46%
    14:00 +27°C° 0 mm 2 mps 717 mmHg 46%
    15:00 +26°C° 0 mm 2 mps 717 mmHg 49%
    16:00 +25°C° 0 mm 2 mps 717 mmHg 52%
    17:00 +25°C° 0 mm 2 mps 717 mmHg 56%
    18:00 +24°C° 0 mm 2 mps 717 mmHg 59%
    19:00 +22°C° 0 mm 3 mps 717 mmHg 62%
    20:00 +22°C° 0 mm 3 mps 717 mmHg 65%
    21:00 +22°C° 0 mm 3 mps 717 mmHg 66%
    22:00 +21°C° 0 mm 3 mps 717 mmHg 67%
    23:00 +21°C° 0 mm 3 mps 717 mmHg 68%

    Day after tomorrow, 20 October, Saturday

    Time Temperature Precipitation Wind Pressure Humidity
    00:00 +21°C° 0 mm 3 mps 717 mmHg 70%
    01:00 +21°C° 0 mm 3 mps 717 mmHg 71%
    02:00 +21°C° 0 mm 3 mps 717 mmHg 73%
    03:00 +20°C° 0 mm 3 mps 717 mmHg 75%
    04:00 +20°C° 0 mm 3 mps 716 mmHg 78%
    05:00 +20°C° 0 mm 3 mps 716 mmHg 80%
    06:00 +21°C° 0 mm 2 mps 717 mmHg 77%
    07:00 +21°C° 0 mm 2 mps 717 mmHg 73%
    08:00 +23°C° 0 mm 2 mps 717 mmHg 70%
    09:00 +24°C° 0 mm 2 mps 717 mmHg 66%
    10:00 +25°C° 0 mm 2 mps 717 mmHg 61%
    11:00 +26°C° 0 mm 2 mps 717 mmHg 57%
    12:00 +26°C° 0.2 mm 3 mps 717 mmHg 58%
    13:00 +25°C° 0.2 mm 3 mps 717 mmHg 59%
    14:00 +25°C° 0.2 mm 3 mps 717 mmHg 59%
    15:00 +25°C° 0.2 mm 3 mps 717 mmHg 63%
    16:00 +24°C° 0.2 mm 3 mps 717 mmHg 67%
    17:00 +22°C° 0.2 mm 3 mps 716 mmHg 71%
    18:00 +22°C° 0 mm 3 mps 717 mmHg 74%
    19:00 +21°C° 0 mm 3 mps 717 mmHg 77%
    20:00 +21°C° 0 mm 2 mps 717 mmHg 79%
    21:00 +21°C° 0 mm 2 mps 717 mmHg 81%
    22:00 +20°C° 0 mm 2 mps 717 mmHg 83%
    23:00 +20°C° 0 mm 2 mps 716 mmHg 84%

    21 October, Sunday

    Time Temperature Precipitation Wind Pressure Humidity
    00:00 +20°C° 0 mm 2 mps 716 mmHg 85%
    01:00 +19°C° 0 mm 2 mps 716 mmHg 86%
    02:00 +19°C° 0 mm 2 mps 716 mmHg 87%
    03:00 +19°C° 0 mm 2 mps 716 mmHg 87%
    04:00 +19°C° 0 mm 2 mps 716 mmHg 88%
    05:00 +18°C° 0 mm 2 mps 715 mmHg 88%
    06:00 +19°C° 0 mm 2 mps 716 mmHg 83%
    07:00 +20°C° 0 mm 2 mps 716 mmHg 77%
    08:00 +21°C° 0 mm 2 mps 716 mmHg 72%
    09:00 +23°C° 0 mm 2 mps 716 mmHg 68%
    10:00 +24°C° 0 mm 3 mps 716 mmHg 63%
    11:00 +25°C° 0 mm 3 mps 716 mmHg 59%
    12:00 +25°C° 0 mm 3 mps 716 mmHg 59%
    13:00 +25°C° 0 mm 4 mps 716 mmHg 60%
    14:00 +25°C° 0 mm 4 mps 715 mmHg 61%
    15:00 +23°C° 0.1 mm 4 mps 715 mmHg 65%
    16:00 +22°C° 0.1 mm 4 mps 715 mmHg 68%
    17:00 +21°C° 0.1 mm 4 mps 715 mmHg 72%
    18:00 +21°C° 0.1 mm 4 mps 715 mmHg 73%
    19:00 +21°C° 0.1 mm 4 mps 715 mmHg 74%
    20:00 +20°C° 0.1 mm 4 mps 715 mmHg 76%
    21:00 +20°C° 0.2 mm 3 mps 715 mmHg 77%
    22:00 +20°C° 0.2 mm 3 mps 715 mmHg 77%
    23:00 +19°C° 0.2 mm 3 mps 715 mmHg 78%

    22 October, Monday

    Time Temperature Precipitation Wind Pressure Humidity
    00:00 +19°C° 0 mm 3 mps 714 mmHg 79%
    01:00 +19°C° 0 mm 3 mps 714 mmHg 80%
    02:00 +19°C° 0 mm 2 mps 714 mmHg 81%
    03:00 +18°C° 0 mm 2 mps 714 mmHg 82%
    04:00 +18°C° 0 mm 2 mps 714 mmHg 83%
    05:00 +19°C° 0 mm 1 mps 714 mmHg 83%
    06:00 +20°C° 0 mm 1 mps 714 mmHg 79%
    07:00 +20°C° 0 mm 2 mps 714 mmHg 74%
    08:00 +20°C° 0 mm 2 mps 715 mmHg 69%
    09:00 +21°C° 0 mm 2 mps 715 mmHg 63%
    10:00 +23°C° 0 mm 2 mps 715 mmHg 56%
    11:00 +24°C° 0 mm 3 mps 715 mmHg 49%
    12:00 +24°C° 0.1 mm 3 mps 715 mmHg 50%
    13:00 +24°C° 0.1 mm 3 mps 714 mmHg 50%
    14:00 +24°C° 0.1 mm 3 mps 714 mmHg 51%
    15:00 +24°C° 0.1 mm 3 mps 714 mmHg 55%
    16:00 +22°C° 0.1 mm 3 mps 714 mmHg 59%
    17:00 +21°C° 0.1 mm 3 mps 714 mmHg 63%
    18:00 +21°C° 0.1 mm 3 mps 714 mmHg 65%
    19:00 +20°C° 0.1 mm 3 mps 714 mmHg 66%
    20:00 +20°C° 0.1 mm 3 mps 715 mmHg 68%
    21:00 +20°C° 0 mm 3 mps 715 mmHg 69%
    22:00 +20°C° 0 mm 3 mps 715 mmHg 70%
    23:00 +19°C° 0 mm 3 mps 715 mmHg 71%

    23 October, Tuesday

    Time Temperature Precipitation Wind Pressure Humidity
    00:00 +19°C° 0.1 mm 3 mps 715 mmHg 73%
    01:00 +19°C° 0.1 mm 3 mps 715 mmHg 75%
    02:00 +19°C° 0.1 mm 4 mps 714 mmHg 77%
    03:00 +19°C° 0.1 mm 3 mps 715 mmHg 77%
    04:00 +18°C° 0.1 mm 3 mps 715 mmHg 78%
    05:00 +18°C° 0.1 mm 3 mps 715 mmHg 79%
    06:00 +19°C° 0 mm 3 mps 715 mmHg 76%
    07:00 +19°C° 0 mm 3 mps 715 mmHg 72%
    08:00 +20°C° 0 mm 3 mps 715 mmHg 69%
    09:00 +21°C° 0 mm 3 mps 716 mmHg 64%
    10:00 +21°C° 0 mm 3 mps 716 mmHg 60%
    11:00 +22°C° 0 mm 4 mps 716 mmHg 55%
    12:00 +22°C° 0.2 mm 3 mps 715 mmHg 56%
    13:00 +22°C° 0.2 mm 3 mps 715 mmHg 57%
    14:00 +22°C° 0.2 mm 3 mps 715 mmHg 57%
    15:00 +21°C° 1.1 mm 3 mps 715 mmHg 63%
    16:00 +20°C° 1.1 mm 3 mps 715 mmHg 68%
    17:00 +19°C° 1.1 mm 3 mps 715 mmHg 74%
    18:00 +19°C° 0.7 mm 3 mps 715 mmHg 75%
    19:00 +19°C° 0.7 mm 3 mps 715 mmHg 76%
    20:00 +19°C° 0.7 mm 3 mps 715 mmHg 76%
    21:00 +19°C° 0.6 mm 4 mps 714 mmHg 77%
    22:00 +19°C° 0.6 mm 4 mps 714 mmHg 77%
    23:00 +19°C° 0.6 mm 5 mps 714 mmHg 78%
    Show more